User: anonymous   Login
Location: Deer Lake
(49.1830°N, 57.4330°W)
Time: 08:16:34
(UTC-03:-30)
Language:

Cosmos 1707 - Orbit

View from above orbital plane
View from above orbital plane
View from above satellite
View from above satellite

Ground track
Ground track

The orbit data is extracted from the following two-line orbital elements,

1 16326U 85113A   17058.19524278  .00001218  00000-0  67017-4 0  9992
2 16326  82.5132 316.3862 0009940 330.2293  29.8371 15.13127108700718
Epoch (UTC): 27 February 2017 04:41:08
Eccentricity: 0.0009940
inclination: 82.5132°
perigee height: 520 km
apogee height: 533 km
right ascension of ascending node: 316.3862°
argument of perigee: 330.2293°
revolutions per day: 15.13127108
mean anomaly at epoch: 29.8371°
orbit number at epoch: 70071

The dashed part of the orbit path shows where the satellite is in the earth's shadow,  

DLR